Time,TemperatureF,DewpointF,PressureIn,WindDirection,WindDirectionDegrees,WindSpeedMPH,WindSpeedGustMPH,Humidity,HourlyPrecipIn,Conditions,Clouds,dailyrainin,SolarRadiationWatts/m^2,SoftwareType,DateUTC
2013-01-09 00:04:00,76.1,71.0,30.11,SSE,162,0.0,-999.0,85,-99.99,,,0.00,0,weatherlink.com 1.10,2013-01-09 05:04:00,
2013-01-09 00:19:00,76.3,72.0,30.11,SSE,161,1.0,-999.0,85,-99.99,,,0.00,0,weatherlink.com 1.10,2013-01-09 05:19:00,
2013-01-09 00:34:00,76.1,71.0,30.11,SSE,161,0.0,-999.0,85,-99.99,,,0.00,0,weatherlink.com 1.10,2013-01-09 05:34:00,
2013-01-09 00:49:00,76.1,71.0,30.11,SSE,161,0.0,-999.0,85,-99.99,,,0.00,0,weatherlink.com 1.10,2013-01-09 05:49:00,
2013-01-09 01:04:00,76.3,72.0,30.11,SSE,161,0.0,-999.0,85,-99.99,,,0.00,0,weatherlink.com 1.10,2013-01-09 06:04:00,
2013-01-09 01:19:00,76.1,71.0,30.11,East,97,3.0,-999.0,84,-99.99,,,0.00,0,weatherlink.com 1.10,2013-01-09 06:19:00,
2013-01-09 01:34:00,76.3,71.0,30.12,SE,140,4.0,-999.0,84,-99.99,,,0.00,0,weatherlink.com 1.10,2013-01-09 06:34:00,
2013-01-09 01:49:00,76.7,71.0,30.12,SSE,151,5.0,-999.0,83,-99.99,,,0.00,0,weatherlink.com 1.10,2013-01-09 06:49:00,
2013-01-09 02:04:00,76.7,71.0,30.12,SE,142,6.0,-999.0,83,-99.99,,,0.00,0,weatherlink.com 1.10,2013-01-09 07:04:00,
2013-01-09 02:19:00,76.7,71.0,30.12,SSE,160,5.0,-999.0,83,-99.99,,,0.00,0,weatherlink.com 1.10,2013-01-09 07:19:00,
2013-01-09 02:34:00,76.5,71.0,30.12,SE,135,4.0,-999.0,84,-99.99,,,0.00,0,weatherlink.com 1.10,2013-01-09 07:34:00,
2013-01-09 02:49:00,76.3,71.0,30.13,SE,145,6.0,-999.0,83,-99.99,,,0.00,0,weatherlink.com 1.10,2013-01-09 07:49:00,
2013-01-09 03:04:00,76.5,71.0,30.13,South,171,3.0,-999.0,83,-99.99,,,0.00,0,weatherlink.com 1.10,2013-01-09 08:04:00,
2013-01-09 03:19:00,76.1,71.0,30.13,ESE,103,1.0,-999.0,83,-99.99,,,0.00,0,weatherlink.com 1.10,2013-01-09 08:19:00,
2013-01-09 03:34:00,76.1,71.0,30.13,SSE,158,4.0,-999.0,83,-99.99,,,0.00,0,weatherlink.com 1.10,2013-01-09 08:34:00,
2013-01-09 03:49:00,76.1,71.0,30.13,East,82,1.0,-999.0,83,-99.99,,,0.00,0,weatherlink.com 1.10,2013-01-09 08:49:00,
2013-01-09 04:04:00,76.1,71.0,30.13,SSE,153,3.0,-999.0,83,-99.99,,,0.00,0,weatherlink.com 1.10,2013-01-09 09:04:00,
2013-01-09 04:19:00,76.0,71.0,30.13,SSE,161,1.0,-999.0,83,-99.99,,,0.00,0,weatherlink.com 1.10,2013-01-09 09:19:00,
2013-01-09 04:34:00,75.8,70.0,30.14,ESE,112,1.0,-999.0,83,-99.99,,,0.00,0,weatherlink.com 1.10,2013-01-09 09:34:00,
2013-01-09 04:49:00,75.8,70.0,30.14,South,169,4.0,-999.0,83,-99.99,,,0.00,0,weatherlink.com 1.10,2013-01-09 09:49:00,
2013-01-09 05:04:00,75.8,70.0,30.14,SE,129,4.0,-999.0,83,-99.99,,,0.00,0,weatherlink.com 1.10,2013-01-09 10:04:00,
2013-01-09 05:19:00,75.6,70.0,30.14,SSE,155,4.0,-999.0,82,-99.99,,,0.00,0,weatherlink.com 1.10,2013-01-09 10:19:00,
2013-01-09 05:34:00,75.8,70.0,30.14,ENE,69,1.0,-999.0,82,-99.99,,,0.00,0,weatherlink.com 1.10,2013-01-09 10:34:00,
2013-01-09 05:49:00,76.0,71.0,30.14,SE,130,0.0,-999.0,83,-99.99,,,0.00,0,weatherlink.com 1.10,2013-01-09 10:49:00,
2013-01-09 06:04:00,75.6,70.0,30.14,SE,141,4.0,-999.0,83,-99.99,,,0.00,0,weatherlink.com 1.10,2013-01-09 11:04:00,
2013-01-09 06:19:00,75.6,70.0,30.15,SSE,160,10.0,-999.0,82,-99.99,,,0.00,0,weatherlink.com 1.10,2013-01-09 11:19:00,
2013-01-09 06:34:00,75.8,70.0,30.15,SSE,152,2.0,-999.0,81,-99.99,,,0.00,0,weatherlink.com 1.10,2013-01-09 11:34:00,
2013-01-09 06:49:00,75.8,70.0,30.16,SSE,155,6.0,-999.0,81,-99.99,,,0.00,0,weatherlink.com 1.10,2013-01-09 11:49:00,
2013-01-09 07:04:00,75.8,70.0,30.16,SSE,148,5.0,-999.0,81,-99.99,,,0.00,0,weatherlink.com 1.10,2013-01-09 12:04:00,
2013-01-09 07:23:00,75.6,69.0,30.17,SE,143,1.0,-999.0,81,-99.99,,,0.00,9,weatherlink.com 1.10,2013-01-09 12:23:00,
2013-01-09 07:34:00,76.0,70.0,30.17,SE,130,2.0,-999.0,82,-99.99,,,0.00,54,weatherlink.com 1.10,2013-01-09 12:34:00,
2013-01-09 07:49:00,76.1,70.0,30.18,South,173,1.0,-999.0,82,-99.99,,,0.00,37,weatherlink.com 1.10,2013-01-09 12:49:00,
2013-01-09 08:04:00,76.3,70.0,30.19,SE,132,0.0,-999.0,82,-99.99,,,0.00,54,weatherlink.com 1.10,2013-01-09 13:04:00,
2013-01-09 08:19:00,76.7,71.0,30.19,SE,141,3.0,-999.0,82,-99.99,,,0.00,98,weatherlink.com 1.10,2013-01-09 13:19:00,
2013-01-09 08:34:00,76.8,71.0,30.20,ESE,102,5.0,-999.0,82,-99.99,,,0.00,95,weatherlink.com 1.10,2013-01-09 13:34:00,
2013-01-09 08:49:00,77.0,71.0,30.20,SSE,150,5.0,-999.0,82,-99.99,,,0.00,98,weatherlink.com 1.10,2013-01-09 13:49:00,
2013-01-09 09:04:00,77.4,71.0,30.21,ENE,61,2.0,-999.0,81,-99.99,,,0.00,243,weatherlink.com 1.10,2013-01-09 14:04:00,
2013-01-09 09:19:00,77.7,71.0,30.22,SSE,157,2.0,-999.0,80,-99.99,,,0.00,132,weatherlink.com 1.10,2013-01-09 14:19:00,
2013-01-09 09:49:00,78.8,71.0,30.22,SSE,157,2.0,-999.0,78,-99.99,,,0.00,533,weatherlink.com 1.10,2013-01-09 14:49:00,
2013-01-09 10:04:00,79.0,72.0,30.22,ESE,115,3.0,-999.0,78,-99.99,,,0.00,536,weatherlink.com 1.10,2013-01-09 15:04:00,
2013-01-09 10:19:00,79.4,72.0,30.22,SE,134,2.0,-999.0,77,-99.99,,,0.00,213,weatherlink.com 1.10,2013-01-09 15:19:00,
2013-01-09 10:34:00,79.6,72.0,30.22,SE,128,5.0,-999.0,77,-99.99,,,0.00,622,weatherlink.com 1.10,2013-01-09 15:34:00,
2013-01-09 10:49:00,79.0,72.0,30.22,SE,127,0.0,-999.0,78,-99.99,,,0.00,264,weatherlink.com 1.10,2013-01-09 15:49:00,
2013-01-09 11:04:00,79.6,72.0,30.21,SE,143,3.0,-999.0,78,-99.99,,,0.00,338,weatherlink.com 1.10,2013-01-09 16:04:00,
2013-01-09 11:19:00,79.4,72.0,30.20,SE,144,4.0,-999.0,78,-99.99,,,0.00,555,weatherlink.com 1.10,2013-01-09 16:19:00,
2013-01-09 11:34:00,79.9,72.0,30.19,East,86,2.0,-999.0,77,-99.99,,,0.00,742,weatherlink.com 1.10,2013-01-09 16:34:00,
2013-01-09 11:49:00,79.9,72.0,30.19,East,82,5.0,-999.0,76,-99.99,,,0.00,339,weatherlink.com 1.10,2013-01-09 16:49:00,
2013-01-09 12:04:00,80.7,73.0,30.19,SSE,157,2.0,-999.0,76,-99.99,,,0.00,654,weatherlink.com 1.10,2013-01-09 17:04:00,
2013-01-09 12:19:00,80.5,72.0,30.19,SE,129,3.0,-999.0,75,-99.99,,,0.00,881,weatherlink.com 1.10,2013-01-09 17:19:00,
2013-01-09 12:34:00,80.7,72.0,30.18,East,99,4.0,-999.0,75,-99.99,,,0.00,816,weatherlink.com 1.10,2013-01-09 17:34:00,
2013-01-09 12:49:00,80.1,72.0,30.17,SE,138,4.0,-999.0,75,-99.99,,,0.00,671,weatherlink.com 1.10,2013-01-09 17:49:00,
2013-01-09 13:04:00,79.9,72.0,30.17,ESE,111,5.0,-999.0,76,-99.99,,,0.00,900,weatherlink.com 1.10,2013-01-09 18:04:00,
2013-01-09 13:19:00,80.3,72.0,30.17,East,86,2.0,-999.0,76,-99.99,,,0.00,390,weatherlink.com 1.10,2013-01-09 18:19:00,
2013-01-09 13:34:00,79.9,71.0,30.16,NNE,24,3.0,-999.0,75,-99.99,,,0.00,362,weatherlink.com 1.10,2013-01-09 18:34:00,
2013-01-09 13:49:00,80.1,72.0,30.16,ESE,116,2.0,-999.0,76,-99.99,,,0.00,779,weatherlink.com 1.10,2013-01-09 18:49:00,
2013-01-09 14:04:00,80.3,71.0,30.16,East,84,3.0,-999.0,74,-99.99,,,0.00,232,weatherlink.com 1.10,2013-01-09 19:04:00,
2013-01-09 14:19:00,80.7,73.0,30.16,East,94,5.0,-999.0,76,-99.99,,,0.00,712,weatherlink.com 1.10,2013-01-09 19:19:00,
2013-01-09 14:34:00,80.9,72.0,30.15,ENE,61,3.0,-999.0,75,-99.99,,,0.00,721,weatherlink.com 1.10,2013-01-09 19:34:00,
2013-01-09 14:49:00,80.1,72.0,30.16,East,97,4.0,-999.0,76,-99.99,,,0.00,127,weatherlink.com 1.10,2013-01-09 19:49:00,
2013-01-09 15:04:00,79.8,72.0,30.16,SE,134,2.0,-999.0,76,-99.99,,,0.00,160,weatherlink.com 1.10,2013-01-09 20:04:00,
2013-01-09 15:19:00,80.1,73.0,30.16,East,81,4.0,-999.0,78,-99.99,,,0.00,550,weatherlink.com 1.10,2013-01-09 20:19:00,
2013-01-09 15:34:00,79.4,72.0,30.16,East,86,2.0,-999.0,77,-99.99,,,0.00,232,weatherlink.com 1.10,2013-01-09 20:34:00,
2013-01-09 15:49:00,79.0,72.0,30.16,SE,132,0.0,-999.0,78,-99.99,,,0.00,181,weatherlink.com 1.10,2013-01-09 20:49:00,
2013-01-09 16:04:00,79.0,72.0,30.16,SE,146,1.0,-999.0,78,-99.99,,,0.00,141,weatherlink.com 1.10,2013-01-09 21:04:00,
2013-01-09 16:19:00,79.2,72.0,30.16,ENE,67,2.0,-999.0,78,-99.99,,,0.00,104,weatherlink.com 1.10,2013-01-09 21:19:00,
2013-01-09 16:34:00,78.6,72.0,30.17,ENE,77,4.0,-999.0,79,-99.99,,,0.00,69,weatherlink.com 1.10,2013-01-09 21:34:00,
2013-01-09 16:49:00,78.3,72.0,30.17,SE,138,1.0,-999.0,80,-99.99,,,0.00,83,weatherlink.com 1.10,2013-01-09 21:49:00,
2013-01-09 17:19:00,77.9,71.0,30.17,SSE,152,3.0,-999.0,80,-99.99,,,0.00,16,weatherlink.com 1.10,2013-01-09 22:19:00,
2013-01-09 17:34:00,77.7,71.0,30.19,ESE,102,0.0,-999.0,80,-99.99,,,0.00,7,weatherlink.com 1.10,2013-01-09 22:34:00,
2013-01-09 17:49:00,77.6,71.0,30.19,East,81,0.0,-999.0,81,-99.99,,,0.00,0,weatherlink.com 1.10,2013-01-09 22:49:00,
2013-01-09 18:04:00,77.4,71.0,30.19,ENE,73,1.0,-999.0,81,-99.99,,,0.00,0,weatherlink.com 1.10,2013-01-09 23:04:00,
2013-01-09 18:19:00,77.4,72.0,30.20,ENE,76,0.0,-999.0,82,-99.99,,,0.00,0,weatherlink.com 1.10,2013-01-09 23:19:00,
2013-01-09 18:34:00,77.4,72.0,30.20,East,86,1.0,-999.0,82,-99.99,,,0.00,0,weatherlink.com 1.10,2013-01-09 23:34:00,
2013-01-09 18:49:00,77.2,71.0,30.20,ENE,66,3.0,-999.0,82,-99.99,,,0.00,0,weatherlink.com 1.10,2013-01-09 23:49:00,
2013-01-09 19:04:00,77.2,71.0,30.20,ENE,69,0.0,-999.0,82,-99.99,,,0.00,0,weatherlink.com 1.10,2013-01-10 00:04:00,
2013-01-09 19:19:00,77.0,71.0,30.20,NE,46,3.0,-999.0,82,-99.99,,,0.00,0,weatherlink.com 1.10,2013-01-10 00:19:00,
2013-01-09 19:34:00,77.0,71.0,30.20,ENE,60,1.0,-999.0,82,-99.99,,,0.00,0,weatherlink.com 1.10,2013-01-10 00:34:00,
2013-01-09 19:49:00,77.0,71.0,30.20,ENE,69,6.0,-999.0,82,-99.99,,,0.00,0,weatherlink.com 1.10,2013-01-10 00:49:00,
2013-01-09 20:04:00,77.0,71.0,30.21,East,87,0.0,-999.0,82,-99.99,,,0.00,0,weatherlink.com 1.10,2013-01-10 01:04:00,
2013-01-09 20:19:00,76.8,71.0,30.22,ENE,59,3.0,-999.0,82,-99.99,,,0.00,0,weatherlink.com 1.10,2013-01-10 01:19:00,
2013-01-09 20:34:00,76.8,71.0,30.22,ESE,104,3.0,-999.0,82,-99.99,,,0.00,0,weatherlink.com 1.10,2013-01-10 01:34:00,
2013-01-09 20:49:00,76.8,71.0,30.21,SSW,201,6.0,-999.0,82,-99.99,,,0.00,0,weatherlink.com 1.10,2013-01-10 01:49:00,
2013-01-09 21:04:00,76.7,71.0,30.21,ESE,111,4.0,-999.0,82,-99.99,,,0.00,0,weatherlink.com 1.10,2013-01-10 02:04:00,
2013-01-09 21:19:00,76.7,71.0,30.22,ESE,119,0.0,-999.0,81,-99.99,,,0.00,0,weatherlink.com 1.10,2013-01-10 02:19:00,
2013-01-09 21:34:00,76.5,70.0,30.22,East,84,0.0,-999.0,81,-99.99,,,0.00,0,weatherlink.com 1.10,2013-01-10 02:34:00,
2013-01-09 21:49:00,76.7,71.0,30.23,SE,125,2.0,-999.0,81,-99.99,,,0.00,0,weatherlink.com 1.10,2013-01-10 02:49:00,
2013-01-09 22:04:00,76.7,71.0,30.23,East,101,3.0,-999.0,81,-99.99,,,0.00,0,weatherlink.com 1.10,2013-01-10 03:04:00,
2013-01-09 22:19:00,76.7,71.0,30.23,ESE,119,3.0,-999.0,81,-99.99,,,0.00,0,weatherlink.com 1.10,2013-01-10 03:19:00,
2013-01-09 22:34:00,76.5,70.0,30.23,ENE,72,3.0,-999.0,81,-99.99,,,0.00,0,weatherlink.com 1.10,2013-01-10 03:34:00,
2013-01-09 22:49:00,76.5,70.0,30.23,ESE,104,3.0,-999.0,81,-99.99,,,0.00,0,weatherlink.com 1.10,2013-01-10 03:49:00,
2013-01-09 23:04:00,76.3,70.0,30.23,East,81,1.0,-999.0,80,-99.99,,,0.00,0,weatherlink.com 1.10,2013-01-10 04:04:00,
2013-01-09 23:20:00,76.3,70.0,30.23,SSE,154,2.0,-999.0,80,-99.99,,,0.00,0,weatherlink.com 1.10,2013-01-10 04:20:00,
2013-01-09 23:34:00,76.1,69.0,30.23,East,94,5.0,-999.0,79,-99.99,,,0.00,0,weatherlink.com 1.10,2013-01-10 04:34:00,
2013-01-09 23:50:00,76.1,69.0,30.23,ENE,70,6.0,-999.0,79,-99.99,,,0.00,0,weatherlink.com 1.10,2013-01-10 04:50:00,